Weather History for Kununurra, WE

Change the Weather History Date:

Wednesday, June 19, 2013

  Actual Average Record
Temperature  
Mean Temperature 70 °F -  
Max Temperature 88 °F - - ()
Min Temperature 52 °F - - ()
Cooling Degree Days 5    
Growing Degree Days 20 (Base 50)    
Moisture  
Dew Point 45 °F    
Average Humidity 44    
Maximum Humidity 88    
Minimum Humidity 8    
Precipitation  
Precipitation 0.00 in - - ()
Sea Level Pressure  
Sea Level Pressure 29.90 in    
Wind  
Wind Speed 3 mph ()    
Max Wind Speed 10 mph    
Max Gust Speed -    
Visibility 6.7 miles    
Events      
T = Trace of Precipitation, MM = Missing Value Source: Averaged Metar Reports

Daily Weather History Graph

Daily Weather History Graph

Search for Another Location

Airport:

Trip Planner

Search our weather history database for the weather conditions in past years. The results will help you decide how hot, cold, wet, or windy it might be!

Date:

Astronomy

Jun. 19, 2013 Rise Set
Actual Time 5:50 AM WST 5:02 PM WST
Civil Twilight 5:27 AM WST 5:25 PM WST
Nautical Twilight 5:00 AM WST 5:52 PM WST
Astronomical Twilight 4:33 AM WST 6:19 PM WST
Moon 1:07 PM WST 1:07 AM WST
Length of Visible Light 11h 58m
Length of Day
11h 11m
Waxing Gibbous, 75% of the Moon is Illuminated
Jun 19
Waxing Gibbous
Jun 23
Full
Jun 30
Last Quarter
Jul 8
New
Jul 16
First Quarter

Hourly Weather History & Observations

Time (WST) Temp. Dew Point Humidity Pressure Visibility Wind Dir Wind Speed Gust Speed Precip Events Conditions
12:00 AM 58 °F 51 °F 71% 29.87 in - Calm Calm - -  
12:00 AM 59.0 °F 51.8 °F 77% 29.86 in 6.2 mi Calm Calm - N/A   Unknown
12:30 AM 57.2 °F 51.8 °F 82% 29.86 in 6.2 mi Calm Calm - N/A   Unknown
1:00 AM 57.2 °F 51.8 °F 82% 29.86 in 6.2 mi Calm Calm - N/A   Unknown
1:30 AM 55.4 °F 51.8 °F 88% 29.86 in 6.2 mi Calm Calm - N/A   Unknown
2:00 AM 57 °F 51 °F 72% 29.86 in - SSE 3.5 mph - -  
2:00 AM 57.2 °F 50.0 °F 77% 29.86 in 6.2 mi SSE 3.5 mph - N/A   Unknown
2:30 AM 57.2 °F 53.6 °F 88% 29.86 in 6.2 mi SE 1.2 mph - N/A   Unknown
3:00 AM 57 °F 54 °F 84% 29.86 in - Calm Calm - -  
3:00 AM 57.2 °F 53.6 °F 88% 29.86 in 6.2 mi Calm Calm - N/A   Unknown
3:30 AM 55.4 °F 50.0 °F 82% 29.86 in 6.2 mi Calm Calm - N/A   Unknown
4:00 AM 55.4 °F 50.0 °F 82% 29.86 in 6.2 mi Calm Calm - N/A   Unknown
4:30 AM 59.0 °F 53.6 °F 82% 29.86 in 6.2 mi SSE 4.6 mph - N/A   Unknown
5:00 AM 59 °F 44 °F 47% 29.88 in - ESE 5.8 mph - -  
5:00 AM 59.0 °F 44.6 °F 59% 29.89 in 6.2 mi ESE 5.8 mph - N/A   Unknown
5:30 AM 53.6 °F 50.0 °F 88% 29.89 in 6.2 mi SSE 4.6 mph - N/A   Unknown
6:00 AM 55 °F 49 °F 75% 29.91 in 19 mi Calm Calm - -   Partly Cloudy
6:00 AM 55.4 °F 50.0 °F 82% 29.89 in 6.2 mi Calm Calm - N/A   Unknown
6:30 AM 60.8 °F 46.4 °F 59% 29.92 in 6.2 mi South 3.5 mph - N/A   Unknown
7:00 AM 64.4 °F 46.4 °F 52% 29.95 in 6.2 mi South 3.5 mph - N/A   Unknown
7:30 AM 69.8 °F 39.2 °F 33% 29.95 in 6.2 mi SE 4.6 mph - N/A   Unknown
8:00 AM 74 °F 36 °F 15% 29.96 in - SE 4.6 mph - -  
8:00 AM 73.4 °F 35.6 °F 25% 29.95 in 6.2 mi SE 4.6 mph - N/A   Unknown
8:30 AM 78.8 °F 28.4 °F 16% 29.98 in 6.2 mi SSE 6.9 mph - N/A   Unknown
9:00 AM 79 °F 28 °F 8% 29.97 in 12 mi ESE 10.4 mph - -   Partly Cloudy
9:00 AM 78.8 °F 28.4 °F 16% 29.95 in 6.2 mi ESE 10.4 mph - N/A   Unknown
9:30 AM 78.8 °F 28.4 °F 16% 29.95 in 6.2 mi SE 10.4 mph - N/A   Unknown
10:00 AM 80.6 °F 32.0 °F 17% 29.95 in 6.2 mi SE 8.1 mph - N/A   Unknown
10:30 AM 80.6 °F 32.0 °F 17% 29.95 in 6.2 mi SE 10.4 mph - N/A   Unknown
11:00 AM 83 °F 33 °F 9% 29.93 in - SE 9.2 mph - -  
11:00 AM 84.2 °F 33.8 °F 16% 29.92 in 6.2 mi SE 9.2 mph - N/A   Unknown
11:30 AM 84.2 °F 33.8 °F 16% 29.92 in 6.2 mi SE 8.1 mph - N/A   Unknown
12:00 PM 85 °F 35 °F 9% 29.90 in - SE 9.2 mph - -  
12:00 PM 84.2 °F 35.6 °F 18% 29.89 in 6.2 mi SE 9.2 mph - N/A   Unknown
12:30 PM 86.0 °F 35.6 °F 17% 29.89 in 6.2 mi SE 8.1 mph - N/A   Unknown
1:00 PM 86.0 °F 37.4 °F 18% 29.86 in 6.2 mi SE 5.8 mph - N/A   Unknown
1:30 PM 86.0 °F 37.4 °F 18% 29.86 in 6.2 mi SE 9.2 mph - N/A   Unknown
2:00 PM 88 °F 36 °F 8% 29.86 in - SE 8.1 mph - -  
2:00 PM 87.8 °F 35.6 °F 16% 29.86 in 6.2 mi SE 8.1 mph - N/A   Unknown
2:30 PM 87.8 °F 37.4 °F 17% 29.86 in 6.2 mi East 8.1 mph - N/A   Unknown
3:00 PM 87 °F 38 °F 10% 29.86 in 12 mi SE 5.8 mph - -   Partly Cloudy
3:00 PM 87.8 °F 37.4 °F 17% 29.86 in 6.2 mi SE 5.8 mph - N/A   Unknown
3:30 PM 87.8 °F 37.4 °F 17% 29.86 in 6.2 mi SE 6.9 mph - N/A   Unknown
4:00 PM 87.8 °F 41.0 °F 19% 29.86 in 6.2 mi SE 4.6 mph - N/A   Unknown
4:30 PM 86.0 °F 42.8 °F 22% 29.86 in 6.2 mi SSE 4.6 mph - N/A   Unknown
5:00 PM 83 °F 48 °F 20% 29.87 in - SE 3.5 mph - -  
5:00 PM 82.4 °F 48.2 °F 30% 29.86 in 6.2 mi SE 3.5 mph - N/A   Unknown
5:30 PM 78.8 °F 59.0 °F 51% 29.86 in 6.2 mi East 4.6 mph - N/A   Unknown
6:00 PM 78 °F 58 °F 40% 29.88 in - East 4.6 mph - -  
6:00 PM 77.0 °F 57.2 °F 50% 29.86 in 6.2 mi East 4.6 mph - N/A   Unknown
6:30 PM 78.8 °F 51.8 °F 39% 29.89 in 6.2 mi East 5.8 mph - N/A   Unknown
7:00 PM 78.8 °F 50.0 °F 36% 29.89 in 6.2 mi East 5.8 mph - N/A   Unknown
7:30 PM 78.8 °F 50.0 °F 36% 29.92 in 6.2 mi ESE 4.6 mph - N/A   Unknown
8:00 PM 78 °F 47 °F 23% 29.92 in - ESE 5.8 mph - -  
8:00 PM 77.0 °F 48.2 °F 36% 29.92 in 6.2 mi ESE 5.8 mph - N/A   Unknown
8:30 PM 71.6 °F 51.8 °F 50% 29.92 in 6.2 mi East 1.2 mph - N/A   Unknown
9:00 PM 71.6 °F 55.4 °F 57% 29.92 in 6.2 mi ESE 2.3 mph - N/A   Unknown
9:30 PM 71.6 °F 57.2 °F 60% 29.92 in 6.2 mi East 3.5 mph - N/A   Unknown
10:00 PM 71.6 °F 57.2 °F 60% 29.92 in 6.2 mi SSW 3.5 mph - N/A   Unknown
10:30 PM 71.6 °F 57.2 °F 60% 29.92 in 6.2 mi SSW 3.5 mph - N/A   Unknown
11:00 PM 73 °F 57 °F 48% 29.92 in - South 2.3 mph - -  
11:00 PM 73.4 °F 57.2 °F 57% 29.92 in 6.2 mi South 2.3 mph - N/A   Unknown
11:30 PM 71.6 °F 59.0 °F 64% 29.92 in 6.2 mi South 4.6 mph - N/A   Unknown